This demonstration page uses our WeatherBlox Daily Observations layout. Learn more.

39.08367, -84.50855

Hourly Observations for January 28, 2019

Temp ( °F °C ) Dew Point ( °F °C ) Humidity (%) Winds ( mph kmh ) Pressure ( in mb ) Visibility ( mi km ) Precip ( " mm )
12:53 am 00:53 Cloudy 22 -5.6 13 -10.6 68 68 NE 6 9 30.06 1018 10 16.09344 0 0
1:53 am 01:53 Cloudy 23 -5 14 -10 68 68 NNE 3 6 30.03 1017 10 16.09344 0 0
2:53 am 02:53 Cloudy 24 -4.4 15 -9.4 68 68 Calm 29.97 1015 10 16.09344 0 0
3:53 am 03:53 Cloudy 25 -3.9 16 -8.9 69 69 Calm 29.97 1015 10 16.09344 0 0
4:53 am 04:53 Cloudy 26 -3.3 18 -7.8 71 71 Calm 29.94 1014 10 16.09344 0 0
5:53 am 05:53 Cloudy 27 -2.8 19 -7.2 72 72 Calm 29.94 1014 10 16.09344 0 0
6:53 am 06:53 Cloudy 28 -2.2 20 -6.7 72 72 Calm 29.91 1013 10 16.09344 0 0
7:53 am 07:53 Cloudy 29 -1.7 21 -6.1 72 72 Calm 29.91 1013 10 16.09344 0 0
8:53 am 08:53 Cloudy 30 -1.1 22 -5.6 72 72 S 6 9 29.88 1012 10 16.09344 0 0
9:53 am 09:53 Cloudy 34 1.1 24 -4.4 67 67 S 10 17 29.85 1011 10 16.09344 0 0
10:53 am 10:53 Mostly Cloudy 37 2.8 27 -2.8 67 67 S 9 15 29.83 1010 10 16.09344 0 0
11:53 am 11:53 Partly Cloudy 42 5.6 29 -1.7 60 60 S 15 24 29.8 1009 10 16.09344 0 0
12:53 pm 12:53 Mostly Cloudy 45 7.2 30 -1.1 56 56 S 12 19 29.74 1007 10 16.09344 0 0
1:53 pm 13:53 Cloudy 48 8.9 31 -0.6 52 52 SSW 14 22 29.71 1006 10 16.09344 0 0
2:53 pm 14:53 Cloudy with Light Rain 48 8.9 34 1.1 58 58 SSW 20 31 29.68 1005 10 16.09344 0.001 0.001
3:53 pm 15:53 Cloudy 50 10 33 0.6 52 52 SSW 18 30 29.68 1005 10 16.09344 0.001 0.001
4:53 pm 16:53 Cloudy 50 10 33 0.6 52 52 SSW 25 41 29.68 1005 10 16.09344 0 0
5:53 pm 17:53 Cloudy with Light Rain 48 8.9 36 2.2 63 63 SW 15 24 29.68 1005 10 16.09344 0.001 0.001
6:53 pm 18:53 Cloudy with Light Rain 44 6.7 38 3.3 79 79 SSW 9 15 29.71 1006 10 16.09344 0.01 0.254
7:53 pm 19:53 Cloudy with Light Rain 43 6.1 38 3.3 82 82 SW 13 20 29.74 1007 9 14.484096 0.02 0.508
8:17 pm 20:17 Cloudy with Light Rain 42 5.6 37 2.8 82 82 SW 13 20 29.77 1008 10 16.09344 0.001 0.001
8:53 pm 20:53 Cloudy 41 5 37 2.8 86 86 WSW 12 19 29.74 1007 10 16.09344 0.01 0.254
9:24 pm 21:24 Cloudy with Light Rain 39 3.9 35 1.7 86 86 WNW 17 28 29.8 1009 4 6.437376 0.02 0.508
9:53 pm 21:53 Cloudy 33 0.6 28 -2.2 82 82 W 22 35 29.8 1009 9 14.484096 0.02 0.508
10:53 pm 22:53 Cloudy 30 -1.1 24 -4.4 79 79 WNW 16 26 29.85 1011 8 12.874752 0.001 0.001
11:53 pm 23:53 Cloudy 26 -3.3 17 -8.3 69 69 WNW 15 24 29.88 1012 9 14.484096 0 0

Powered by AerisWeather